This demonstration page uses our WeatherBlox Daily Observations layout. Learn more.

Left ArrowRight Arrow

38.89511, -77.03637

Hourly Observations for September 29, 2022

Temp ( °F °C ) Dew Point ( °F °C ) Humidity (%) Winds ( mph kmh ) Pressure ( in mb ) Visibility ( mi km ) Precip ( " mm )
12:52 am 00:52 Partly Cloudy 58 14.4 48 8.9 70 70 NNW 10 17 30.30 1026 10 16 0.00 0.00
1:52 am 01:52 Partly Cloudy 57 13.9 49 9.4 74 74 NNW 12 19 30.31 1026 10 16 0.00 0.00
2:52 am 02:52 Partly Cloudy 56 13.3 50 10 80 80 N 13 20 30.32 1027 10 16 0.00 0.00
3:52 am 03:52 Mostly Cloudy 56 13.3 49 9.4 77 77 N 12 19 30.32 1027 10 16 0.00 0.00
4:52 am 04:52 Mostly Cloudy 56 13.3 49 9.4 77 77 N 12 19 30.32 1027 10 16 0.00 0.00
5:52 am 05:52 Partly Cloudy 57 13.9 46 7.8 67 67 NNE 13 20 30.34 1027 10 16 0.00 0.00
6:52 am 06:52 Mostly Cloudy 55 12.8 45 7.2 69 69 N 13 20 30.34 1028 10 16 0.00 0.00
7:52 am 07:52 Partly Cloudy 57 13.9 46 7.8 67 67 N 14 22 30.36 1028 10 16 0.00 0.00
8:52 am 08:52 Partly Cloudy 61 16.1 47 8.3 60 60 N 15 24 30.37 1029 10 16 0.00 0.00
9:52 am 09:52 Mostly Sunny 63 17.2 46 7.8 54 54 N 18 30 30.38 1029 10 16 0.00 0.00
10:52 am 10:52 Mostly Sunny 65 18.3 46 7.8 50 50 NNE 16 26 30.38 1029 10 16 0.00 0.00
11:52 am 11:52 Partly Cloudy 68 20 47 8.3 47 47 NNE 13 20 30.37 1028 10 16 0.00 0.00
12:52 pm 12:52 Mostly Cloudy 69 20.6 46 7.8 44 44 NNE 15 24 30.36 1028 10 16 0.00 0.00
1:52 pm 13:52 Mostly Cloudy 70 21.1 46 7.8 42 42 NE 10 17 30.35 1028 10 16 0.00 0.00
2:52 pm 14:52 Mostly Cloudy 70 21.1 47 8.3 44 44 NE 14 22 30.32 1027 10 16 0.00 0.00
3:52 pm 15:52 Mostly Cloudy 71 21.7 47 8.3 42 42 NE 10 17 30.31 1027 10 16 0.00 0.00
4:52 pm 16:52 Mostly Cloudy 68 20 47 8.3 47 47 NE 10 17 30.32 1027 10 16 0.00 0.00
5:52 pm 17:52 Mostly Cloudy 67 19.4 46 7.8 47 47 NNE 12 19 30.31 1026 10 16 0.00 0.00
6:52 pm 18:52 Mostly Cloudy 66 18.9 46 7.8 48 48 NE 13 20 30.30 1026 10 16 0.00 0.00
7:52 pm 19:52 Mostly Cloudy 64 17.8 46 7.8 52 52 NE 8 13 30.30 1026 10 16 0.00 0.00
8:52 pm 20:52 Mostly Cloudy 64 17.8 47 8.3 54 54 NNE 10 17 30.31 1026 10 16 0.00 0.00
9:52 pm 21:52 Mostly Cloudy 62 16.7 47 8.3 58 58 NNE 10 17 30.32 1027 10 16 0.00 0.00
10:52 pm 22:52 Cloudy 61 16.1 48 8.9 62 62 N 13 20 30.31 1026 10 16 0.00 0.00
11:52 pm 23:52 Cloudy 61 16.1 48 8.9 62 62 N 13 20 30.31 1026 10 16 0.00 0.00

Powered by AerisWeather